Location: Park Creek Village Mobile Home Park
(38.2885°N, 122.4714°W)
Time: 08:43:50
(UTC+00:00)

USA 238 - Pass Details

Date: 14 December 2019
Orbit: 1023 x 1189 km, 63.4° (Epoch: 20 January)

Event Time Altitude Azimuth Distance (km) Brightness Sun altitude
Rises 13:28:34 0° 206° (SSW) 3,752 6.4 -20.9°
Reaches altitude 10° 13:31:08 10° 205° (SSW) 2,810 5.8 -20.4°
Maximum altitude 13:37:44 77° 120° (ESE) 1,069 3.8 -19.2°
Drops below altitude 10° 13:44:33 10° 36° (NE) 2,902 6.2 -17.9°
Sets 13:47:15 0° 35° (NE) 3,884 6.9 -17.4°
